GHS-01

Last updated on Mon Oct 20 2025 00:02:06 GMT+0000 (Coordinated Universal Time)

1 65733U 98067XM 25291.63815914 .00136430 00000+0 18239-2 0 9991 2 65733 51.6323 54.3409 0001206 34.5906 325.5164 15.57074102 4559
UTC large
Height (km)
Speed (km/s)
/
Latitude / Longitude
Inclination (degrees)
Orbital Period (minutes)
Azimuth
Elevation
Range (km)
Doppler Factor

Next 0 passes for location: London (51.5072 / 0.1276)

Sorry there are no passes over London.